TKJ7SE LTCG-LTBR

Flight info

Callsign TKJ7SE
Flight time 1h 31m
Altitude 34000
Route ARLAT UM11 IPSAT UW71 ARSUG UM11 ERKOS UW71 EMLAD UM11 OSDUT UW71 TERME UM11 CRM UW71 BAG UG8 PETAR UL614 UMRUN UG8 EKMEL
Aircraft B738/M-SDE2E3FGHIRWXY/LB1

Departure

Time 2026-05-09 09:26
Airport Trabzon International Airport (LTCG)

Arrival

Time 2026-05-09 10:58
Airport Bursa Yenişehir Airport (LTBR)
Time Latitude Longitude Altitude Speed Heading
2026-05-09 09:05 40.99462 39.78418 113 ft 0 kts 202°
2026-05-09 09:18 40.99467 39.78420 113 ft 2 kts 202°
2026-05-09 09:18 40.99481 39.78428 113 ft 2 kts 202°
2026-05-09 09:18 40.99495 39.78437 113 ft 2 kts 224°
2026-05-09 09:19 40.99504 39.78452 113 ft 2 kts 241°
2026-05-09 09:19 40.99509 39.78471 113 ft 2 kts 260°
2026-05-09 09:19 40.99510 39.78490 113 ft 2 kts 279°
2026-05-09 09:19 40.99507 39.78503 113 ft 0 kts 291°
2026-05-09 09:20 40.99505 39.78510 113 ft 0 kts 294°
2026-05-09 09:20 40.99505 39.78511 113 ft 0 kts 294°
2026-05-09 09:22 40.99507 39.78505 113 ft 3 kts 294°
2026-05-09 09:22 40.99529 39.78434 113 ft 12 kts 292°
2026-05-09 09:23 40.99569 39.78303 113 ft 15 kts 292°
2026-05-09 09:23 40.99609 39.78173 113 ft 14 kts 292°
2026-05-09 09:23 40.99647 39.78047 113 ft 16 kts 292°
2026-05-09 09:23 40.99693 39.77899 113 ft 17 kts 292°
2026-05-09 09:24 40.99736 39.77759 113 ft 16 kts 292°
2026-05-09 09:24 40.99778 39.77626 113 ft 14 kts 292°
2026-05-09 09:24 40.99814 39.77522 113 ft 11 kts 309°
2026-05-09 09:24 40.99883 39.77496 113 ft 10 kts 11°
2026-05-09 09:25 40.99943 39.77535 113 ft 8 kts 60°
2026-05-09 09:25 40.99929 39.77604 113 ft 7 kts 110°
2026-05-09 09:25 40.99921 39.77631 113 ft 0 kts 109°
2026-05-09 09:25 40.99917 39.77646 113 ft 7 kts 111°
2026-05-09 09:26 40.99812 39.77987 113 ft 76 kts 114°
2026-05-09 09:26 40.99529 39.78899 113 ft 136 kts 112°
2026-05-09 09:26 40.99103 39.80266 257 ft 172 kts 114°
2026-05-09 09:26 40.98646 39.81634 1029 ft 164 kts 108°
2026-05-09 09:27 40.98544 39.83115 1668 ft 166 kts 77°
2026-05-09 09:27 40.98835 39.84552 2283 ft 162 kts 76°
2026-05-09 09:27 40.98982 39.86044 2735 ft 169 kts 89°
2026-05-09 09:27 40.98883 39.87616 3223 ft 173 kts 98°
2026-05-09 09:28 40.98757 39.89204 3648 ft 180 kts 83°
2026-05-09 09:28 40.99256 39.90754 3999 ft 190 kts 49°
2026-05-09 09:28 41.00301 39.91927 4271 ft 209 kts 32°
2026-05-09 09:28 41.01722 39.92609 4611 ft 226 kts
2026-05-09 09:29 41.03319 39.92777 5109 ft 236 kts
2026-05-09 09:29 41.05006 39.92806 5532 ft 249 kts 354°
2026-05-09 09:29 41.06696 39.92276 6149 ft 253 kts 335°
2026-05-09 09:29 41.08127 39.90927 6694 ft 259 kts 310°
2026-05-09 09:30 41.09093 39.88854 7071 ft 273 kts 289°
2026-05-09 09:30 41.09377 39.86380 7665 ft 277 kts 268°
2026-05-09 09:30 41.09246 39.83824 8332 ft 282 kts 263°
2026-05-09 09:30 41.09045 39.81248 9042 ft 285 kts 264°
2026-05-09 09:31 41.08867 39.78640 9774 ft 288 kts 265°
2026-05-09 09:31 41.08720 39.75962 10440 ft 294 kts 266°
2026-05-09 09:31 41.08590 39.73225 10850 ft 309 kts 266°
2026-05-09 09:32 41.08322 39.67287 11808 ft 334 kts 266°
2026-05-09 09:32 41.08181 39.64201 12534 ft 338 kts 266°
2026-05-09 09:32 41.08038 39.61102 13285 ft 342 kts 266°
2026-05-09 09:32 41.07890 39.57948 14016 ft 346 kts 267°
2026-05-09 09:33 41.07739 39.54739 14782 ft 349 kts 266°
2026-05-09 09:33 41.07586 39.51518 15507 ft 353 kts 266°
2026-05-09 09:33 41.07430 39.48262 16244 ft 357 kts 266°
2026-05-09 09:33 41.07272 39.44982 17016 ft 359 kts 266°
2026-05-09 09:34 41.07112 39.41672 17676 ft 364 kts 266°
2026-05-09 09:34 41.06949 39.38320 18369 ft 367 kts 266°
2026-05-09 09:34 41.06783 39.34938 19062 ft 371 kts 266°
2026-05-09 09:36 41.05974 39.10566 23486 ft 389 kts 275°
2026-05-09 09:36 41.06241 39.06997 24065 ft 391 kts 277°
2026-05-09 09:36 41.06569 39.03430 24617 ft 394 kts 278°
2026-05-09 09:37 41.06924 38.99824 25168 ft 397 kts 278°
2026-05-09 09:37 41.07285 38.96180 25651 ft 401 kts 278°
2026-05-09 09:37 41.07642 38.92514 26247 ft 402 kts 278°
2026-05-09 09:37 41.07993 38.88853 26714 ft 405 kts 278°
2026-05-09 09:38 41.08340 38.85147 27239 ft 407 kts 277°
2026-05-09 09:38 41.08688 38.81381 27721 ft 409 kts 277°
2026-05-09 09:38 41.09026 38.77668 28198 ft 411 kts 277°
2026-05-09 09:38 41.09368 38.73888 28636 ft 414 kts 278°
2026-05-09 09:39 41.09710 38.70085 29116 ft 416 kts 277°
2026-05-09 09:39 41.10043 38.66320 29768 ft 412 kts 277°
2026-05-09 09:39 41.10368 38.62571 30455 ft 408 kts 277°
2026-05-09 09:39 41.10688 38.58849 30975 ft 406 kts 277°
2026-05-09 09:40 41.11002 38.55140 31494 ft 405 kts 277°
2026-05-09 09:40 41.11308 38.51477 31976 ft 404 kts 277°
2026-05-09 09:40 41.11616 38.47780 32490 ft 402 kts 277°
2026-05-09 09:40 41.11921 38.44100 32960 ft 400 kts 277°
2026-05-09 09:41 41.12221 38.40469 33406 ft 399 kts 277°
2026-05-09 09:41 41.12525 38.36790 33845 ft 397 kts 277°
2026-05-09 09:41 41.12826 38.33139 34101 ft 399 kts 276°
2026-05-09 09:42 41.13428 38.25800 34101 ft 397 kts 276°
2026-05-09 09:42 41.14029 38.18471 34110 ft 397 kts 276°
2026-05-09 09:43 41.14627 38.11127 34106 ft 399 kts 276°
2026-05-09 09:43 41.15222 38.03768 34107 ft 398 kts 276°
2026-05-09 09:44 41.15806 37.96484 34110 ft 399 kts 276°
2026-05-09 09:44 41.16386 37.89177 34103 ft 398 kts 276°
2026-05-09 09:45 41.16988 37.81872 34098 ft 399 kts 277°
2026-05-09 09:45 41.17612 37.74585 34098 ft 400 kts 277°
2026-05-09 09:46 41.18238 37.67236 34097 ft 400 kts 277°
2026-05-09 09:46 41.18843 37.59857 34090 ft 402 kts 276°
2026-05-09 09:47 41.19264 37.52464 34085 ft 402 kts 275°
2026-05-09 09:47 41.19760 37.45126 34088 ft 402 kts 276°
2026-05-09 09:48 41.20313 37.37720 34088 ft 402 kts 276°
2026-05-09 09:48 41.20868 37.30295 34090 ft 403 kts 276°
2026-05-09 09:49 41.21411 37.22941 34090 ft 403 kts 275°
2026-05-09 09:49 41.21976 37.15503 34090 ft 404 kts 276°
2026-05-09 09:50 41.22558 37.08071 34085 ft 405 kts 276°
2026-05-09 09:50 41.23136 37.00640 34089 ft 406 kts 276°
2026-05-09 09:51 41.23711 36.93154 34088 ft 406 kts 276°
2026-05-09 09:51 41.24278 36.85673 34084 ft 406 kts 276°
2026-05-09 09:52 41.24834 36.78254 34082 ft 407 kts 276°
2026-05-09 09:52 41.25387 36.70813 34083 ft 406 kts 275°
2026-05-09 09:53 41.25941 36.63290 34083 ft 408 kts 275°
2026-05-09 09:53 41.26178 36.55807 34075 ft 409 kts 265°
2026-05-09 09:54 41.25170 36.48394 34080 ft 410 kts 261°
2026-05-09 09:54 41.24488 36.40896 34086 ft 409 kts 264°
2026-05-09 09:55 41.23897 36.33305 34086 ft 410 kts 263°
2026-05-09 09:55 41.23199 36.25787 34093 ft 410 kts 262°
2026-05-09 09:56 41.22408 36.18238 34103 ft 410 kts 261°
2026-05-09 09:56 41.21577 36.10752 34113 ft 413 kts 261°
2026-05-09 09:57 41.20724 36.03247 34125 ft 411 kts 261°
2026-05-09 09:57 41.19854 35.95687 34133 ft 413 kts 261°
2026-05-09 09:58 41.18978 35.88142 34138 ft 412 kts 261°
2026-05-09 09:58 41.18096 35.80600 34138 ft 414 kts 261°
2026-05-09 09:59 41.17206 35.73018 34137 ft 413 kts 261°
2026-05-09 09:59 41.16314 35.65453 34133 ft 413 kts 261°
2026-05-09 10:00 41.15413 35.57865 34131 ft 414 kts 261°
2026-05-09 10:00 41.14501 35.50261 34126 ft 417 kts 261°
2026-05-09 10:01 41.13589 35.42695 34128 ft 414 kts 261°
2026-05-09 10:01 41.12667 35.35048 34134 ft 415 kts 261°
2026-05-09 10:02 41.11753 35.27511 34138 ft 416 kts 260°
2026-05-09 10:02 41.10819 35.19886 34141 ft 418 kts 260°
2026-05-09 10:03 41.09884 35.12299 34134 ft 418 kts 260°
2026-05-09 10:03 41.08939 35.04672 34135 ft 419 kts 260°
2026-05-09 10:04 41.07993 34.97078 34125 ft 419 kts 260°
2026-05-09 10:04 41.07037 34.89429 34129 ft 419 kts 260°
2026-05-09 10:05 41.06082 34.81845 34138 ft 418 kts 259°
2026-05-09 10:05 41.05124 34.74269 34146 ft 418 kts 259°
2026-05-09 10:06 41.04151 34.66620 34154 ft 419 kts 259°
2026-05-09 10:06 41.03173 34.58974 34168 ft 420 kts 260°
2026-05-09 10:07 41.02189 34.51334 34182 ft 420 kts 259°
2026-05-09 10:07 41.01203 34.43723 34184 ft 420 kts 259°
2026-05-09 10:08 41.00210 34.36098 34183 ft 421 kts 259°
2026-05-09 10:08 40.99204 34.28403 34180 ft 420 kts 259°
2026-05-09 10:09 40.98197 34.20746 34182 ft 421 kts 258°
2026-05-09 10:09 40.97187 34.13110 34173 ft 421 kts 259°
2026-05-09 10:10 40.96175 34.05484 34167 ft 420 kts 259°
2026-05-09 10:10 40.95157 33.97870 34154 ft 420 kts 259°
2026-05-09 10:11 40.94138 33.90273 34163 ft 421 kts 258°
2026-05-09 10:11 40.93108 33.82632 34163 ft 421 kts 258°
2026-05-09 10:12 40.92072 33.74990 34170 ft 422 kts 258°
2026-05-09 10:12 40.91027 33.67329 34178 ft 421 kts 258°
2026-05-09 10:13 40.89990 33.59764 34163 ft 420 kts 258°
2026-05-09 10:13 40.88937 33.52111 34170 ft 421 kts 258°
2026-05-09 10:14 40.87887 33.44520 34168 ft 420 kts 258°
2026-05-09 10:14 40.86834 33.36951 34166 ft 419 kts 258°
2026-05-09 10:15 40.85777 33.29390 34161 ft 418 kts 258°
2026-05-09 10:15 40.84718 33.21848 34165 ft 417 kts 257°
2026-05-09 10:16 40.83652 33.14286 33750 ft 423 kts 258°
2026-05-09 10:16 40.83118 33.10524 33491 ft 414 kts 257°
2026-05-09 10:16 40.82595 33.06834 33219 ft 407 kts 257°
2026-05-09 10:16 40.82073 33.03176 32963 ft 412 kts 257°
2026-05-09 10:17 40.81536 32.99427 32706 ft 419 kts 258°
2026-05-09 10:17 40.80994 32.95650 32437 ft 419 kts 257°
2026-05-09 10:17 40.80454 32.91894 32171 ft 417 kts 258°
2026-05-09 10:17 40.79913 32.88126 31902 ft 415 kts 258°
2026-05-09 10:18 40.79376 32.84403 31636 ft 412 kts 258°
2026-05-09 10:18 40.78842 32.80701 31368 ft 409 kts 258°
2026-05-09 10:18 40.78312 32.77031 31103 ft 406 kts 258°
2026-05-09 10:18 40.77788 32.73420 30839 ft 403 kts 258°
2026-05-09 10:19 40.77261 32.69790 30555 ft 402 kts 258°
2026-05-09 10:19 40.76740 32.66212 30216 ft 399 kts 258°
2026-05-09 10:19 40.76220 32.62647 29845 ft 395 kts 258°
2026-05-09 10:19 40.75697 32.59078 29500 ft 393 kts 258°
2026-05-09 10:20 40.75180 32.55564 29150 ft 394 kts 258°
2026-05-09 10:20 40.74654 32.51989 28796 ft 393 kts 258°
2026-05-09 10:20 40.74140 32.48491 28447 ft 389 kts 258°
2026-05-09 10:20 40.73630 32.45033 28098 ft 385 kts 258°
2026-05-09 10:21 40.73118 32.41572 27749 ft 383 kts 258°
2026-05-09 10:21 40.72608 32.38128 27408 ft 382 kts 258°
2026-05-09 10:21 40.72102 32.34719 27068 ft 380 kts 258°
2026-05-09 10:21 40.71598 32.31336 26731 ft 376 kts 258°
2026-05-09 10:22 40.71096 32.27961 26392 ft 372 kts 258°
2026-05-09 10:22 40.70599 32.24649 26060 ft 369 kts 258°
2026-05-09 10:22 40.70108 32.21368 25719 ft 367 kts 258°
2026-05-09 10:22 40.69616 32.18081 25379 ft 364 kts 258°
2026-05-09 10:23 40.69127 32.14823 25035 ft 362 kts 258°
2026-05-09 10:23 40.68637 32.11563 24693 ft 362 kts 258°
2026-05-09 10:23 40.68150 32.08333 24344 ft 360 kts 258°
2026-05-09 10:23 40.67665 32.05117 23998 ft 357 kts 258°
2026-05-09 10:24 40.67178 32.01900 23653 ft 356 kts 258°
2026-05-09 10:24 40.66692 31.98712 23311 ft 355 kts 258°
2026-05-09 10:24 40.66206 31.95522 22973 ft 354 kts 258°
2026-05-09 10:24 40.65727 31.92389 22640 ft 351 kts 258°
2026-05-09 10:25 40.65245 31.89242 22304 ft 350 kts 258°
2026-05-09 10:25 40.64763 31.86102 21980 ft 348 kts 258°
2026-05-09 10:25 40.64290 31.83021 21724 ft 346 kts 258°
2026-05-09 10:25 40.63811 31.79910 21469 ft 345 kts 258°
2026-05-09 10:26 40.63333 31.76817 21210 ft 344 kts 258°
2026-05-09 10:26 40.62856 31.73737 20954 ft 341 kts 258°
2026-05-09 10:26 40.62384 31.70690 20700 ft 339 kts 258°
2026-05-09 10:26 40.61919 31.67686 20448 ft 339 kts 258°
2026-05-09 10:27 40.61447 31.64651 20195 ft 338 kts 258°
2026-05-09 10:27 40.60977 31.61635 19944 ft 338 kts 258°
2026-05-09 10:27 40.60503 31.58597 19688 ft 336 kts 258°
2026-05-09 10:27 40.60033 31.55581 19435 ft 334 kts 258°
2026-05-09 10:28 40.59571 31.52628 19187 ft 333 kts 258°
2026-05-09 10:28 40.59102 31.49634 18933 ft 332 kts 258°
2026-05-09 10:28 40.58635 31.46644 18676 ft 332 kts 258°
2026-05-09 10:28 40.58174 31.43697 18423 ft 329 kts 258°
2026-05-09 10:29 40.57711 31.40747 18167 ft 329 kts 258°
2026-05-09 10:29 40.57251 31.37825 17912 ft 326 kts 258°
2026-05-09 10:29 40.56795 31.34939 17669 ft 324 kts 257°
2026-05-09 10:29 40.56332 31.32008 17418 ft 325 kts 258°
2026-05-09 10:30 40.55876 31.29134 17168 ft 322 kts 258°
2026-05-09 10:30 40.55421 31.26265 16912 ft 320 kts 258°
2026-05-09 10:30 40.54967 31.23406 16670 ft 319 kts 258°
2026-05-09 10:30 40.54512 31.20550 16428 ft 318 kts 258°
2026-05-09 10:31 40.54056 31.17700 16181 ft 317 kts 258°
2026-05-09 10:31 40.53607 31.14900 15927 ft 315 kts 258°
2026-05-09 10:31 40.53155 31.12085 15674 ft 314 kts 258°
2026-05-09 10:31 40.52705 31.09282 15431 ft 312 kts 258°
2026-05-09 10:32 40.52258 31.06509 15191 ft 311 kts 258°
2026-05-09 10:32 40.51810 31.03729 14953 ft 310 kts 258°
2026-05-09 10:32 40.51360 31.00948 14696 ft 309 kts 258°
2026-05-09 10:32 40.50919 30.98228 14463 ft 307 kts 258°
2026-05-09 10:33 40.50474 30.95485 14222 ft 306 kts 258°
2026-05-09 10:33 40.50031 30.92750 13973 ft 305 kts 258°
2026-05-09 10:33 40.49594 30.90054 13734 ft 302 kts 257°
2026-05-09 10:33 40.49155 30.87351 13491 ft 302 kts 258°
2026-05-09 10:34 40.48717 30.84651 13248 ft 302 kts 257°
2026-05-09 10:34 40.47842 30.79284 12758 ft 300 kts 257°
2026-05-09 10:34 40.47405 30.76610 12515 ft 298 kts 257°
2026-05-09 10:35 40.46974 30.73977 12266 ft 297 kts 257°
2026-05-09 10:35 40.46537 30.71313 12012 ft 297 kts 257°
2026-05-09 10:35 40.46106 30.68685 11774 ft 295 kts 257°
2026-05-09 10:35 40.45671 30.66044 11518 ft 294 kts 257°
2026-05-09 10:36 40.45241 30.63434 11270 ft 292 kts 257°
2026-05-09 10:36 40.44809 30.60818 11026 ft 292 kts 257°
2026-05-09 10:36 40.44378 30.58214 10773 ft 290 kts 257°
2026-05-09 10:36 40.43953 30.55647 10523 ft 289 kts 257°
2026-05-09 10:37 40.43526 30.53073 10275 ft 289 kts 257°
2026-05-09 10:37 40.43100 30.50504 10024 ft 287 kts 257°
2026-05-09 10:37 40.42680 30.47971 9772 ft 286 kts 257°
2026-05-09 10:37 40.42254 30.45415 9517 ft 286 kts 257°
2026-05-09 10:38 40.41828 30.42849 9258 ft 284 kts 257°
2026-05-09 10:38 40.41410 30.40326 9009 ft 284 kts 257°
2026-05-09 10:38 40.40984 30.37792 8747 ft 284 kts 257°
2026-05-09 10:38 40.40557 30.35269 8484 ft 284 kts 257°
2026-05-09 10:39 40.40132 30.32737 8230 ft 281 kts 256°
2026-05-09 10:39 40.39714 30.30263 7971 ft 274 kts 256°
2026-05-09 10:39 40.39305 30.27840 7703 ft 271 kts 256°
2026-05-09 10:39 40.38903 30.25428 7457 ft 272 kts 257°
2026-05-09 10:40 40.38512 30.23032 7331 ft 269 kts 257°
2026-05-09 10:40 40.38109 30.20591 7231 ft 271 kts 256°
2026-05-09 10:40 40.37693 30.18198 7110 ft 269 kts 256°
2026-05-09 10:40 40.37261 30.15828 6983 ft 269 kts 255°
2026-05-09 10:41 40.36829 30.13437 6864 ft 269 kts 256°
2026-05-09 10:41 40.36398 30.11033 6747 ft 269 kts 256°
2026-05-09 10:41 40.35966 30.08657 6622 ft 269 kts 255°
2026-05-09 10:41 40.35527 30.06266 6495 ft 268 kts 256°
2026-05-09 10:42 40.35099 30.03915 6373 ft 268 kts 256°
2026-05-09 10:42 40.34665 30.01525 6271 ft 268 kts 255°
2026-05-09 10:42 40.34225 29.99166 6156 ft 267 kts 255°
2026-05-09 10:42 40.33776 29.96790 6030 ft 268 kts 255°
2026-05-09 10:43 40.33329 29.94412 5906 ft 268 kts 255°
2026-05-09 10:43 40.32893 29.92059 5781 ft 267 kts 255°
2026-05-09 10:43 40.32460 29.89695 5658 ft 266 kts 256°
2026-05-09 10:43 40.32023 29.87317 5535 ft 266 kts 256°
2026-05-09 10:44 40.31588 29.84970 5414 ft 266 kts 256°
2026-05-09 10:44 40.31155 29.82629 5330 ft 265 kts 256°
2026-05-09 10:44 40.30713 29.80258 5232 ft 265 kts 256°
2026-05-09 10:44 40.30307 29.77930 5134 ft 265 kts 257°
2026-05-09 10:45 40.29836 29.75582 5034 ft 263 kts 253°
2026-05-09 10:46 40.27529 29.66500 4643 ft 261 kts 251°
2026-05-09 10:46 40.26956 29.64288 4516 ft 249 kts 251°
2026-05-09 10:46 40.26411 29.62199 4487 ft 240 kts 251°
2026-05-09 10:46 40.25865 29.60101 4489 ft 242 kts 251°
2026-05-09 10:47 40.25309 29.58022 4485 ft 242 kts 246°
2026-05-09 10:47 40.24350 29.56250 4489 ft 241 kts 220°
2026-05-09 10:47 40.22838 29.55295 4397 ft 245 kts 191°
2026-05-09 10:47 40.21138 29.55450 4280 ft 248 kts 161°
2026-05-09 10:48 40.19700 29.56702 4159 ft 252 kts 132°
2026-05-09 10:48 40.18912 29.58729 4098 ft 253 kts 101°
2026-05-09 10:48 40.18935 29.61013 4111 ft 255 kts 80°
2026-05-09 10:48 40.19352 29.63275 4099 ft 255 kts 73°
2026-05-09 10:49 40.19915 29.65476 4101 ft 255 kts 71°
2026-05-09 10:49 40.20491 29.67669 4101 ft 254 kts 72°
2026-05-09 10:49 40.21035 29.69887 4101 ft 256 kts 73°
2026-05-09 10:49 40.21537 29.72098 4101 ft 255 kts 74°
2026-05-09 10:50 40.22034 29.74339 4097 ft 254 kts 74°
2026-05-09 10:50 40.22523 29.76561 4099 ft 255 kts 74°
2026-05-09 10:50 40.23011 29.78782 4099 ft 255 kts 74°
2026-05-09 10:50 40.23504 29.81019 4096 ft 255 kts 74°
2026-05-09 10:51 40.23998 29.83265 4098 ft 254 kts 74°
2026-05-09 10:51 40.24560 29.85468 3973 ft 256 kts 62°
2026-05-09 10:51 40.25674 29.87225 3812 ft 251 kts 33°
2026-05-09 10:51 40.27263 29.88045 3658 ft 242 kts
2026-05-09 10:52 40.28852 29.87735 3508 ft 230 kts 332°
2026-05-09 10:52 40.30008 29.86425 3494 ft 213 kts 298°
2026-05-09 10:52 40.30561 29.84670 3514 ft 209 kts 287°
2026-05-09 10:52 40.30883 29.82823 3491 ft 203 kts 274°
2026-05-09 10:53 40.30770 29.81041 3498 ft 194 kts 257°
2026-05-09 10:53 40.30431 29.79326 3496 ft 193 kts 255°
2026-05-09 10:53 40.30084 29.77634 3496 ft 192 kts 256°
2026-05-09 10:53 40.29733 29.75933 3477 ft 194 kts 255°
2026-05-09 10:54 40.29378 29.74244 3277 ft 192 kts 255°
2026-05-09 10:54 40.29027 29.72579 3001 ft 189 kts 255°
2026-05-09 10:54 40.28687 29.70954 2751 ft 177 kts 255°
2026-05-09 10:54 40.28371 29.69450 2534 ft 168 kts 255°
2026-05-09 10:55 40.28072 29.68030 2321 ft 153 kts 255°
2026-05-09 10:55 40.27788 29.66688 2118 ft 154 kts 255°
2026-05-09 10:55 40.27509 29.65356 1910 ft 152 kts 256°
2026-05-09 10:55 40.27225 29.64022 1711 ft 153 kts 255°
2026-05-09 10:56 40.26935 29.62666 1487 ft 154 kts 256°
2026-05-09 10:56 40.26674 29.61325 1303 ft 152 kts 256°
2026-05-09 10:56 40.26381 29.59985 1089 ft 151 kts 254°
2026-05-09 10:56 40.26098 29.58682 912 ft 149 kts 256°
2026-05-09 10:57 40.25821 29.57373 768 ft 145 kts 254°
2026-05-09 10:57 40.25605 29.56347 771 ft 84 kts 255°
2026-05-09 10:57 40.25480 29.55767 772 ft 61 kts 255°
2026-05-09 10:57 40.25373 29.55257 774 ft 54 kts 255°
2026-05-09 10:58 40.25332 29.55057 775 ft 0 kts 257°
2026-05-09 10:58 40.25330 29.55048 775 ft 5 kts 252°
2026-05-09 10:58 40.25302 29.54928 776 ft 18 kts 254°
2026-05-09 10:58 40.25264 29.54751 777 ft 19 kts 255°
2026-05-09 10:59 40.25234 29.54607 777 ft 12 kts 262°
2026-05-09 10:59 40.25282 29.54534 778 ft 10 kts 339°
2026-05-09 10:59 40.25352 29.54505 778 ft 10 kts 344°
2026-05-09 10:59 40.25414 29.54483 778 ft 8 kts 344°
2026-05-09 11:00 40.25467 29.54462 778 ft 7 kts 343°
2026-05-09 11:00 40.25513 29.54459 778 ft 6 kts 19°
2026-05-09 11:00 40.25551 29.54456 778 ft 5 kts 347°
2026-05-09 11:00 40.25581 29.54446 779 ft 2 kts 346°
2026-05-09 11:01 40.25583 29.54446 779 ft 0 kts 346°